Погода в Чупе

Россия / Республика Карелия     62°08′27″N   34°01′06″E
темп.,
°C
ветер,
м/с
пор.,
м/с
влажн.,
%
обл.,
%
осадки,
мм/ч
давл.,
гПа
погр.,
м
12 мая, ср
ср1200:00+13ююз3137317 0.0 1023275
03:00+11ююз210845 0.0 1023185
06:00+13ююз3107824 0.0 1023274
09:00+19ююз35585 0.0 1023486
12:00+23ююз35435 0.0 10231285
15:00+24ю34370 0.0 10221647
18:00+23ююв24400 0.0 10211152
21:00+16ююв11640 0.0 102114
13 мая, чт
чт1300:00+14ю11740 0.0 102211
03:00+13ююв22790 0.0 102112
06:00+14юв13724 0.0 102089
09:00+20юв25550 0.0 1020404
12:00+23юв46453 0.0 10191321
15:00+23юв46469 0.0 10181177
18:00+21юв465069 0.0 1016795
21:00+15вюв127268 0.0 101541
14 мая, пт
пт1400:00+14вюв11755 0.0 101414
03:00+12всв11770 0.0 101310
06:00+14в258039 0.2 1011178
09:00+15ююв2483100 1.1 1011347
12:00+14юв2392100 2.1 1011283
15:00+18юз356680 2.6 10101100
18:00+18юз456643 0.3 1011941
21:00+13юз388073 0.3 1012407
15 мая, сб
сб1500:00+11юз269510 0.0 1012143
03:00+10зюз11952 0.0 101312
06:00+11ююз00877 0.0 101354
09:00+17вюв236510 0.0 1012578
12:00+19вюв3454100 0.0 10121024
15:00+18вюв3551100 0.0 1011679
18:00+18всв265332 0.0 1008518
21:00+15св3873100 0.0 1006211
16 мая, вс
вс1600:00+13в2690100 1.3 1005189
03:00+13св2697100 2.7 1004209
06:00+13св1297100 0.8 1003216
09:00+15ююз2391100 0.9 1003457
12:00+15з2590100 0.2 1003478
15:00+16з3683100 0.6 1005778
18:00+13сз2592100 0.3 1007314
21:00+13юз1296100 1.3 100990